Tracking 18980 objects as of 20-Feb-2018
HD Live streaming from Space Station
objects crossing your sky now

OPS 6393 (FLTSATCOM 3)

Track OPS 6393 (FLTSATCOM 3) now!
OPS 6393 (FLTSATCOM 3) is classified as:


NORAD ID: 11669
Int'l Code: 1980-004A
Perigee: 35,731.7 km
Apogee: 35,918.2 km
Inclination: 12.0 °
Period: 1,437.7 minutes
Semi major axis: 42195 km
RCS: 3.9811 m2 (large)
Launch date: January 18, 1980
Source: United States (US)
Launch site: AIR FORCE EASTERN TEST RANGE (AFETR)
aabbcc
Your satellite tracking list
Your tracking list is empty




NASA's NSSDC Master Catalog

Two Line Element Set (TLE):
1 11669U 80004A   18050.26917088 -.00000043 +00000-0 +00000-0 0  9998
2 11669 011.9533 330.8613 0022101 170.6528 352.5060 01.00160517139371
Source of the keplerian elements: AFSPC